Flag for Jersey Weather past 2 weeks in Saint Helier, Jersey

Now
39 °F

Clear.


Feels Like: 33 °F
Forecast: 45 / 47 °F
Wind: 9 mph from Southwest

Location: Dinard Airport

Current Time: Mar 3, 2015 at 1:44:43 AM

Latest Report: Mar 3, 2015 at 1:00 AM


Visibility: N/A

Pressure: 30.15 "Hg

Humidity: 81%

Dew point: 34 °F

Location of Saint HelierLocation

Historic Weather in Saint Helier — Graph

°F

Saint Helier temperature yesterday

Maximum temperature yesterday: 50 °F (at 1:00 PM)
Minimum temperature yesterday: 39 °F (at 10:30 PM)
Average temperature yesterday: 45 °F

Past Weeks' High & Low Weather Summary

 TemperatureHumidityPressure
High55 °F (Feb 28, 3:30 PM)100% (Feb 16, 12:30 AM)30.80 "Hg (Feb 16, 12:30 AM)
Low28 °F (Feb 18, 7:30 AM)40% (Feb 18, 1:30 PM)29.47 "Hg (Feb 23, 12:30 AM)
Average45 °F82%30.01 "Hg
* Reported Feb 16 12:30 AM — Mar 3 12:30 AM, Saint Helier, Weather by CustomWeather, © 2015

Note: Actual official high and low records may vary slightly from our data, if they occured in-between our weather recording intervals... More about our weather records

Advertising

Saint Helier weather history for previous 24 hours

 ConditionsComfort  
Time TempWeatherWind HumidityBarometerVisibility
12:30 AM
Tue, Mar 3
39 °FClear.9 mph81%30.15 "HgN/A
12:00 AM39 °FClear.9 mph81%30.15 "HgN/A
11:30 PM
Mon, Mar 2
39 °FClear.8 mph87%30.15 "HgN/A
11:00 PM39 °FClear.8 mph87%30.15 "HgN/A
10:30 PM39 °FClear.8 mph87%30.15 "HgN/A
10:00 PM41 °FClear.8 mph81%30.15 "HgN/A
9:00 PM41 °FClear.9 mph81%30.15 "HgN/A
8:30 PM41 °FClear.8 mph81%30.15 "HgN/A
8:00 PM43 °FClear.7 mph76%30.15 "HgN/A
7:30 PM43 °FClear.8 mph76%30.12 "HgN/A
7:00 PM43 °FClear.8 mph71%30.12 "HgN/A
6:30 PM43 °FClear.7 mph71%30.12 "HgN/A
6:00 PM43 °FClear.7 mph71%30.12 "HgN/A
5:30 PM45 °FOvercast.9 mph71%30.09 "HgN/A
5:00 PM46 °FClear.17 mph71%30.09 "HgN/A
4:30 PM48 °FClear.14 mph54%30.09 "HgN/A
4:00 PM50 °FClear.14 mph47%30.07 "HgN/A
3:30 PM48 °FClear.17 mph46%30.07 "HgN/A
3:00 PM48 °FClear.14 mph54%30.07 "HgN/A
2:30 PM50 °FPartly sunny.16 mph50%30.07 "HgN/A
2:00 PM50 °FBroken clouds.18 mph50%30.07 "HgN/A
1:30 PM50 °FMostly cloudy.21 mph50%30.04 "HgN/A
1:00 PM50 °FOvercast.20 mph50%30.04 "HgN/A
12:30 PM48 °FMore clouds than sun.18 mph50%30.04 "HgN/A
12:00 PM48 °FMore clouds than sun.21 mph58%30.04 "HgN/A
11:30 AM48 °FMostly cloudy.18 mph66%30.01 "HgN/A
11:00 AM48 °FPartly sunny.18 mph62%30.01 "HgN/A
10:30 AM48 °FScattered clouds.22 mph66%29.98 "HgN/A
10:00 AM48 °FClear.18 mph71%29.98 "HgN/A
9:30 AM46 °FPassing clouds.16 mph76%29.98 "HgN/A
9:00 AM46 °FPassing clouds.17 mph76%29.95 "HgN/A
8:30 AM45 °FLight rain. Partly sunny.22 mph81%29.92 "HgN/A
8:00 AM45 °FScattered clouds.14 mph76%29.92 "HgN/A
7:30 AM45 °FPassing clouds.15 mph76%29.89 "HgN/A
7:00 AM43 °FBroken clouds.14 mph81%29.86 "HgN/A
6:30 AM43 °FClear.12 mph81%29.86 "HgN/A
6:00 AM43 °FClear.12 mph81%29.86 "HgN/A
5:30 AM43 °FClear.14 mph87%29.83 "HgN/A
5:00 AM43 °FClear.15 mph87%29.83 "HgN/A
4:30 AM43 °FClear.12 mph87%29.80 "HgN/A
4:00 AM43 °FClear.10 mph87%29.80 "HgN/A
3:30 AM45 °FPassing clouds.14 mph81%29.80 "HgN/A
3:00 AM45 °FDrizzle. Overcast.15 mph81%29.80 "HgN/A
2:30 AM46 °FClear.12 mph76%29.80 "HgN/A
2:00 AM48 °FMostly cloudy.9 mph71%29.77 "HgN/A
1:30 AM46 °FClear.9 mph82%29.80 "HgN/A
1:00 AM46 °FClear.8 mph87%29.77 "HgN/A
Weather by CustomWeather, © 2015

See weather overviewHow to use our weather pages